Showing default

FLOCK 4BE 29, 60509

Orbit data source: Space-Track

FLOCK 4BE 29, 60509 is a payload satellite owned by Planet (US) in SSO that was launched on Fri, 16 Aug 2024 UTC via an FALCON 9 launch vehicle from the Air Force Western Test Range (AFWTR). Payload-class satellites include a variety of spacecraft equipped with specific instruments for various scientific and technological missions. These include communications satellites like Starlink; space stations such as the ISS; scientific satellites like the Hubble; Earth observation satellites from companies like Planet Labs, Umbra, and HawkEye 360; GPS; miniature CubeSats for education and research; and military/defense satellites.

Loading next visibility...
Identifier
60509, 2024-149AT
Orbit
SSO
Country
Flag of USUS
Related business
Manufacturer
Planet
Mission
Operational Commercial Imaging
Bus & Motor
CUBESAT 3U, Unknown motor
Mass
5.7 kg wet, 5.7 kg dry
Launch date (UTC)
2024-08-16 (1 year ago)
Launch vehicle
FALCON 9
Launch site
Air Force Western Test Range (AFWTR)
Object type
Payload
Rocket body
Debris
Shape & HBR
Box + 2 Pan, 1.0 m
Radar Cross Section
0.072 m², Medium (>0.1 m² and < 1m²)

Expand to show TLE details & history
Last TLE update: 9 hours ago

TLE from 9 hours ago
0 FLOCK 4BE 29
1 60509U 24149AT  25289.44735516  .00019393  00000-0  60184-3 0  9998
2 60509  97.4037   8.2289 0004424  93.7888 266.3860 15.33421057 64921
Epoch: 2025-10-16T10:44Z
TLE epoch observation values (Epoch: 2025-10-16T10:44:11.485Z)
Latitude
-0.00008°
Longitude
-178.02589°
Altitude
468.915 km
Speed
7.632 km/s
True Right ascension
00h 32m 54s
True Declination
0° 00' 00"
Sunlit
Object was in full shadow at epoch
Visualization orbit readout
Latitude
Unknown
Longitude
Unknown
Altitude
Unknown
Speed
Unknown
Apparent Right ascension
Unknown
Apparent Declination
Unknown
Sunlit
N/A
Visualization observer readout
Local Sidereal Time
14:42:15
Azimuth
Unknown
Elevation
Unknown
Doppler factor
Unknown
Orbital elements
Apogee altitude
465.589 km
Perigee altitude
459.536 km
Semi-major axis
6,840.699 km
Eccentricity
0.00044
Inclination
97.4037°
RAAN
8.2289°
Arg. of periapsis
93.7888°
True anomaly
266.33541°
Mean anomaly
266.386°
Eccentric anomaly
266.3607°
Mean motion
3.83612 °/min
Orbital period
93.84 mins
BSTAR
0.00060184
Loading maneuver chart data...
Computing Atmospheric mass density...
Loading historical data...
Loading historical data...
Loading historical data...
Loading historical data...
Loading historical data...
Loading historical data...
Loading historical data...

Documentation

Showing up to 5 results
|